Showing default

SJ-17, 41838

Orbit data source: Space-Track

SJ-17, 41838 is a Chinese payload satellite in GEO that was launched on Thu, 03 Nov 2016 UTC via a CHANG ZHENG 5/YZ-2 launch vehicle from the Wenchang Satellite Launch Center (WSC). Payloads include a variety of satellites, spacecraft, and rockets equipped with specific instruments for various scientific and technological missions. These include communications satellites like Starlink; space stations such as the ISS; scientific satellites like the Hubble; Earth observation satellites from companies like Planet Labs, Umbra, and HawkEye 360; GPS; miniature CubeSats for education and research; and military/defense satellites.

Not visible in the next 10 days
SJ-17 details
Identifier
41838, 2016-065A
Orbit
GEO
Last TLE update6 hours ago
Origin
Flag of CNCHISAE/CAST (CN / PRC)
ManufacturerCAST
MissionOperational Civil Technology
Bus & MotorDFH-4?, Unknown motor
Mass~3,000 kg wet, ~2,500 kg dry
Launch date (UTC)
2016-11-03 (8 years ago)
Launch vehicle
CHANG ZHENG 5/YZ-2
Launch site
Wenchang Satellite Launch Center (WSC)
Object type
Payload
Rocket body
Debris
Shape & HBRBox + 2 Pan, 10 m
Radar Cross Section14.304 m², Large (>1 m²)

Expand to show TLE details & history

TLE from 6 hours ago
0 SJ-17
1 41838U 16065A   24361.29222985  .00000089  00000-0  00000-0 0  9994
2 41838   4.3793  79.1250 0004333 220.1677  83.1576  1.00273151 29814
Epoch: 2024-12-26T07:00Z
Definitive object data (Epoch: 2024-12-26T07:00:48.659Z)
Latitude-3.65341°
Longitude-177.90248°
Altitude35,784.167 km
Speed3.075 km/s
True Right ascension01h 30m 17s
True Declination-3° 38' 59"
Sunlit
Object was in daylight at TLE epoch
Visualization TLE readout
Latitude2.52672°
Longitude-86.55589°
Altitude35,803.639 km
Speed3.073 km/s
Apparent Right ascension07h 09m 25s
Apparent Declination-3° 05' 30"
Sunlit
Object is in daylight
Visualization observer readout
Local Sidereal Time12:27:37
Azimuth260.883° W
Elevation5.988°
Doppler factor1
Orbital elements
Apogee altitude35,805.544 km
Perigee altitude35,769.003 km
Semi-major axis42,165.41 km
Eccentricity0.0004333
Inclination4.3793°
RAAN79.125°
Arg. of periapsis220.1677°
True anomaly83.2069°
Mean anomaly83.1576°
Eccentric anomaly83.18225°
Mean motion0.25067 °/min
BSTARUnknown
Orbital period1436.13 mins
Loading historical data...
41838 neighbors
Authenticating...
Loading maneuver chart data...
Loading historical data...
Loading historical data...
Loading historical data...
Loading historical data...
Loading historical data...
Loading historical data...
Loading historical data...
Other satellites on launch #65 in the year 2016 (2016-11-03 UTC)

SJ-17 Visibility forecast

Observer location: undefined°, undefined

SJ-17 is not visible in the next 10 days
Span
Click to sort rows by Start time (UTC) header in descending order
Start Az.
Max El. time (UTC)
Max El. Az.
Max El.
End time (UTC)
End Az.
|